Regional Weather Roundup
Issued by NWS Binghamton, NY

Home | Current Version | Previous Version | Text Only | Print | Product List | Glossary On
Versions: 1 2 3 4 5 6 7 8 9 10 11 12 13 14 15 16 17 18 19 20 21 22 23 24 25 26 27 28 29 30 31 32 33 34 35 36 37 38 39 40 41 42 43 44 45 46 47 48 49 50
720
ASUS41 KBGM 240310
RWRBGM

REGIONAL WEATHER ROUNDUP
NATIONAL WEATHER SERVICE BINGHAMTON NY
1100 PM EDT SAT JUL 23 2016

Note: "fair" indicates few or no clouds below 12,000 feet with no
significant weather and/or obstructions to visibility.

* = Station(s) that does not report precipitation, such as rain,
snow, etc, also no thunder or fog.

NYZ009-015>018-022>025-036-037-044>046-055>057-062-240400
...Central New York...

CITY           SKY/WX    TMP DP  RH WIND       PRES   REMARKS
Binghamton     CLEAR     73  55  53 W6        29.99R
Cortland       FAIR      68  59  73 CALM      29.97S
Dansville      CLEAR     72  60  66 S3        29.99R
Elmira         CLEAR     68  55  63 CALM      29.97R
Ithaca         CLEAR     64  58  80 CALM      29.98R
Hamilton       CLEAR     64  61  88 CALM      29.98R
Hornell        CLEAR     66  57  72 CALM      30.05R
Monticello     CLEAR     66  55  68 W5        29.99R
Norwich        CLEAR     64  59  82 CALM      29.97R
Oneonta        CLEAR     66  57  72 CALM      29.99S
Penn Yan       CLEAR     75  56  51 SW5       29.98R
Rome           CLEAR     66  65  96 CALM      29.96R
Sidney         CLEAR     66  66 100 CALM      29.97R
Syracuse       PTCLDY    73  61  65 N7        29.93R
$$

PAZ038>040-043-044-047-048-072-240400
...Northeast Pennsylvania...

CITY           SKY/WX    TMP DP  RH WIND       PRES   REMARKS
Hazleton       CLEAR     70  54  56 CALM      30.03R
Scranton       CLEAR     75  56  51 CALM      29.96R
$$
&&
KEY
WCI = Wind Chill Index
VSB = Visibility
HX  = Heat Index
$$




USA.gov is the U.S. government's official web portal to all federal, state and local government web resources and services.